Location: B�rgermoos
(47.6500°N, 9.0667°E)
Time: 07:36:14
(UTC+00:00)

Cosmos 1025 Rocket - Pass Details

Date: 18 September 2020
Orbit: 595 x 617 km, 82.5° (Epoch: 24 October)

Event Time Altitude Azimuth Distance (km) Brightness Sun altitude
Rises 18:45:41 0° 353° (N) 2,885 6.8 -13.5°
Reaches altitude 10° 18:47:56 10° 357° (N) 1,979 5.9 -13.9°
Maximum altitude 18:52:17 63° 78° (ENE) 689 3.0 -14.6°
Enters shadow 18:56:07 13° 159° (SSE) 1,773 5.0 -15.2°
